DFINE EDHL-EGJJ

Flight info

Callsign DFINE
Flight time 3h 30m
Altitude 22000
Route HAM DCT RTM DCT COA DCT KOK DCT JSY
Aircraft P46T/L-SBDGRWY/SB1

Departure

Time 2026-05-08 13:52
Airport Lübeck Blankensee Airport (EDHL)

Arrival

Time 2026-05-08 17:22
Airport Jersey Airport (EGJJ)
Time Latitude Longitude Altitude Speed Heading
2026-05-08 13:35 53.80444 10.70241 56 ft 0 kts 341°
2026-05-08 13:47 53.80450 10.70217 54 ft 6 kts 234°
2026-05-08 13:47 53.80408 10.70161 56 ft 6 kts 219°
2026-05-08 13:47 53.80364 10.70118 56 ft 9 kts 175°
2026-05-08 13:47 53.80354 10.70122 56 ft 0 kts 167°
2026-05-08 13:50 53.80353 10.70122 56 ft 1 kts 167°
2026-05-08 13:50 53.80291 10.70144 56 ft 13 kts 171°
2026-05-08 13:50 53.80203 10.70185 57 ft 6 kts 105°
2026-05-08 13:51 53.80219 10.70281 53 ft 21 kts 65°
2026-05-08 13:51 53.80309 10.70765 55 ft 67 kts 72°
2026-05-08 13:51 53.80506 10.71696 125 ft 97 kts 73°
2026-05-08 13:51 53.80719 10.72837 483 ft 107 kts 71°
2026-05-08 13:52 53.80922 10.74175 700 ft 129 kts 76°
2026-05-08 13:52 53.80832 10.75668 1054 ft 137 kts 114°
2026-05-08 13:52 53.80075 10.76880 1119 ft 161 kts 148°
2026-05-08 13:52 53.78977 10.77170 1296 ft 170 kts 186°
2026-05-08 13:53 53.77810 10.76589 1304 ft 180 kts 192°
2026-05-08 13:53 53.76614 10.75993 1473 ft 173 kts 193°
2026-05-08 13:53 53.75472 10.75438 1503 ft 173 kts 190°
2026-05-08 13:53 53.74276 10.74990 1496 ft 173 kts 187°
2026-05-08 13:54 53.73107 10.74729 1518 ft 173 kts 176°
2026-05-08 13:54 53.71907 10.74731 1485 ft 171 kts 180°
2026-05-08 13:54 53.70722 10.74459 1491 ft 171 kts 184°
2026-05-08 13:54 53.69519 10.74185 1490 ft 178 kts 184°
2026-05-08 13:55 53.68307 10.73883 1495 ft 178 kts 184°
2026-05-08 13:55 53.67077 10.73596 1492 ft 180 kts 184°
2026-05-08 13:55 53.64683 10.73019 1473 ft 170 kts 184°
2026-05-08 13:56 53.63538 10.72737 1522 ft 164 kts 184°
2026-05-08 13:56 53.62420 10.72466 1631 ft 159 kts 184°
2026-05-08 13:56 53.61307 10.72198 1763 ft 163 kts 184°
2026-05-08 13:56 53.60164 10.71930 1889 ft 168 kts 185°
2026-05-08 13:57 53.58975 10.71663 2049 ft 176 kts 184°
2026-05-08 13:57 53.57756 10.71392 2182 ft 176 kts 184°
2026-05-08 13:57 53.56548 10.71117 2309 ft 176 kts 184°
2026-05-08 13:57 53.55336 10.70838 2447 ft 175 kts 184°
2026-05-08 13:58 53.54120 10.70557 2587 ft 179 kts 184°
2026-05-08 13:58 53.53288 10.70364 2689 ft 181 kts 184°
2026-05-08 13:58 53.52055 10.70064 2799 ft 176 kts 185°
2026-05-08 13:58 53.50857 10.69776 2925 ft 175 kts 184°
2026-05-08 13:59 53.49649 10.69486 3163 ft 171 kts 184°
2026-05-08 13:59 53.48490 10.69203 3416 ft 170 kts 183°
2026-05-08 13:59 53.47319 10.68925 3669 ft 169 kts 185°
2026-05-08 13:59 53.46142 10.68654 3925 ft 171 kts 184°
2026-05-08 14:00 53.44940 10.68376 4186 ft 176 kts 183°
2026-05-08 14:00 53.43722 10.68021 4458 ft 182 kts 192°
2026-05-08 14:00 53.42560 10.67173 4718 ft 186 kts 204°
2026-05-08 14:00 53.41417 10.66171 4991 ft 184 kts 204°
2026-05-08 14:01 53.40266 10.65171 5235 ft 184 kts 204°
2026-05-08 14:01 53.39144 10.64197 5485 ft 183 kts 204°
2026-05-08 14:01 53.38004 10.63220 5744 ft 184 kts 203°
2026-05-08 14:01 53.36863 10.62251 6001 ft 183 kts 203°
2026-05-08 14:02 53.35740 10.61293 6263 ft 182 kts 205°
2026-05-08 14:02 53.34617 10.60371 6530 ft 181 kts 204°
2026-05-08 14:02 53.33468 10.59444 6781 ft 181 kts 204°
2026-05-08 14:02 53.32333 10.58532 7020 ft 181 kts 204°
2026-05-08 14:03 53.31209 10.57630 7262 ft 179 kts 204°
2026-05-08 14:03 53.30067 10.56728 7516 ft 179 kts 204°
2026-05-08 14:03 53.28954 10.55854 7761 ft 180 kts 204°
2026-05-08 14:03 53.27817 10.54965 8009 ft 178 kts 204°
2026-05-08 14:04 53.26704 10.54099 8258 ft 177 kts 204°
2026-05-08 14:04 53.25594 10.53244 8450 ft 180 kts 204°
2026-05-08 14:04 53.24422 10.52345 8457 ft 190 kts 204°
2026-05-08 14:04 53.23187 10.51378 8459 ft 198 kts 207°
2026-05-08 14:05 53.22155 10.49855 8464 ft 204 kts 237°
2026-05-08 14:05 53.21511 10.47720 8463 ft 207 kts 245°
2026-05-08 14:05 53.20920 10.45563 8466 ft 204 kts 245°
2026-05-08 14:05 53.20337 10.43412 8465 ft 201 kts 245°
2026-05-08 14:06 53.19767 10.41300 8461 ft 199 kts 245°
2026-05-08 14:06 53.19200 10.39206 8454 ft 196 kts 245°
2026-05-08 14:06 53.18645 10.37155 8452 ft 193 kts 245°
2026-05-08 14:06 53.18099 10.35139 8451 ft 192 kts 245°
2026-05-08 14:07 53.17630 10.33074 8448 ft 189 kts 252°
2026-05-08 14:07 53.17278 10.30989 8448 ft 185 kts 254°
2026-05-08 14:07 53.16959 10.28932 8444 ft 184 kts 258°
2026-05-08 14:07 53.16807 10.26819 8447 ft 182 kts 264°
2026-05-08 14:08 53.16693 10.24718 8452 ft 181 kts 264°
2026-05-08 14:08 53.16579 10.22637 8449 ft 181 kts 264°
2026-05-08 14:08 53.16466 10.20547 8454 ft 181 kts 263°
2026-05-08 14:08 53.16352 10.18469 8451 ft 181 kts 264°
2026-05-08 14:09 53.16237 10.16378 8452 ft 181 kts 264°
2026-05-08 14:09 53.16121 10.14296 8453 ft 181 kts 264°
2026-05-08 14:09 53.16007 10.12193 8449 ft 181 kts 264°
2026-05-08 14:09 53.15894 10.10115 8448 ft 180 kts 264°
2026-05-08 14:10 53.15780 10.08018 8450 ft 180 kts 263°
2026-05-08 14:10 53.15661 10.05934 8450 ft 181 kts 264°
2026-05-08 14:10 53.15548 10.03846 8450 ft 181 kts 264°
2026-05-08 14:10 53.15242 10.01865 8449 ft 178 kts 245°
2026-05-08 14:11 53.14720 9.99996 8450 ft 178 kts 244°
2026-05-08 14:11 53.14179 9.98141 8447 ft 178 kts 241°
2026-05-08 14:11 53.13580 9.96338 8450 ft 178 kts 240°
2026-05-08 14:11 53.12994 9.94526 8449 ft 178 kts 241°
2026-05-08 14:12 53.12419 9.92705 8449 ft 177 kts 241°
2026-05-08 14:12 53.11845 9.90882 8466 ft 177 kts 241°
2026-05-08 14:12 53.11275 9.89084 8628 ft 175 kts 241°
2026-05-08 14:12 53.10701 9.87276 8867 ft 177 kts 241°
2026-05-08 14:13 53.10128 9.85465 9043 ft 181 kts 241°
2026-05-08 14:13 53.09530 9.83580 9174 ft 185 kts 241°
2026-05-08 14:13 53.08934 9.81699 9386 ft 184 kts 241°
2026-05-08 14:13 53.08335 9.79809 9588 ft 185 kts 241°
2026-05-08 14:14 53.07733 9.77911 9663 ft 191 kts 241°
2026-05-08 14:14 53.07107 9.75889 9668 ft 198 kts 243°
2026-05-08 14:14 53.06507 9.73808 9678 ft 202 kts 244°
2026-05-08 14:14 53.05905 9.71706 9673 ft 200 kts 244°
2026-05-08 14:15 53.05309 9.69624 9667 ft 198 kts 244°
2026-05-08 14:15 53.04721 9.67573 9662 ft 197 kts 244°
2026-05-08 14:15 53.04140 9.65548 9662 ft 195 kts 244°
2026-05-08 14:15 53.03548 9.63491 9659 ft 194 kts 244°
2026-05-08 14:16 53.02972 9.61483 9652 ft 193 kts 244°
2026-05-08 14:16 53.02396 9.59476 9650 ft 192 kts 244°
2026-05-08 14:16 53.01821 9.57481 9647 ft 191 kts 244°
2026-05-08 14:16 53.01250 9.55501 9645 ft 190 kts 244°
2026-05-08 14:17 53.00681 9.53533 9649 ft 188 kts 244°
2026-05-08 14:17 53.00112 9.51571 9647 ft 187 kts 244°
2026-05-08 14:17 52.99547 9.49630 9645 ft 187 kts 244°
2026-05-08 14:17 52.98984 9.47696 9645 ft 186 kts 244°
2026-05-08 14:18 52.98420 9.45761 9645 ft 186 kts 244°
2026-05-08 14:18 52.97825 9.43859 9646 ft 185 kts 237°
2026-05-08 14:18 52.97088 9.42109 9646 ft 185 kts 233°
2026-05-08 14:18 52.96332 9.40377 9648 ft 186 kts 233°
2026-05-08 14:19 52.95573 9.38641 9647 ft 186 kts 233°
2026-05-08 14:19 52.94813 9.36911 9648 ft 185 kts 232°
2026-05-08 14:19 52.93912 9.35412 9648 ft 185 kts 220°
2026-05-08 14:19 52.92949 9.34010 9646 ft 185 kts 223°
2026-05-08 14:20 52.92017 9.32513 9647 ft 185 kts 225°
2026-05-08 14:20 52.91119 9.31029 9648 ft 185 kts 225°
2026-05-08 14:20 52.90205 9.29524 9648 ft 185 kts 225°
2026-05-08 14:20 52.89279 9.28005 9650 ft 185 kts 225°
2026-05-08 14:21 52.88366 9.26512 9651 ft 185 kts 225°
2026-05-08 14:21 52.87456 9.25020 9647 ft 185 kts 225°
2026-05-08 14:21 52.86536 9.23516 9650 ft 185 kts 225°
2026-05-08 14:21 52.85620 9.22019 9650 ft 185 kts 225°
2026-05-08 14:22 52.84700 9.20513 9649 ft 185 kts 225°
2026-05-08 14:22 52.83782 9.19013 9652 ft 185 kts 225°
2026-05-08 14:22 52.82874 9.17531 9650 ft 185 kts 225°
2026-05-08 14:22 52.81955 9.16033 9650 ft 185 kts 225°
2026-05-08 14:23 52.81032 9.14528 9651 ft 185 kts 225°
2026-05-08 14:23 52.80106 9.13021 9652 ft 185 kts 225°
2026-05-08 14:23 52.79191 9.11530 9652 ft 185 kts 225°
2026-05-08 14:23 52.78273 9.10037 9651 ft 186 kts 224°
2026-05-08 14:24 52.77443 9.08433 9647 ft 185 kts 239°
2026-05-08 14:24 52.76849 9.06545 9642 ft 185 kts 243°
2026-05-08 14:24 52.76276 9.04640 9643 ft 185 kts 243°
2026-05-08 14:24 52.75703 9.02730 9641 ft 185 kts 243°
2026-05-08 14:25 52.75137 9.00842 9645 ft 185 kts 243°
2026-05-08 14:25 52.74568 8.98942 9645 ft 185 kts 243°
2026-05-08 14:25 52.73994 8.97028 9647 ft 185 kts 243°
2026-05-08 14:25 52.73429 8.95142 9645 ft 185 kts 243°
2026-05-08 14:26 52.72856 8.93230 9645 ft 185 kts 243°
2026-05-08 14:26 52.72288 8.91329 9645 ft 185 kts 243°
2026-05-08 14:26 52.71717 8.89424 9644 ft 185 kts 243°
2026-05-08 14:26 52.71145 8.87519 9646 ft 185 kts 243°
2026-05-08 14:27 52.70579 8.85635 9649 ft 185 kts 243°
2026-05-08 14:27 52.70004 8.83724 9646 ft 185 kts 243°
2026-05-08 14:27 52.69422 8.81812 9646 ft 185 kts 240°
2026-05-08 14:27 52.68707 8.80074 9642 ft 185 kts 233°
2026-05-08 14:28 52.67946 8.78364 9644 ft 185 kts 233°
2026-05-08 14:28 52.67181 8.76646 9646 ft 185 kts 233°
2026-05-08 14:28 52.66424 8.74941 9587 ft 183 kts 233°
2026-05-08 14:28 52.65469 8.73594 9378 ft 184 kts 200°
2026-05-08 14:29 52.64222 8.73581 9217 ft 182 kts 160°
2026-05-08 14:29 52.63205 8.74815 8951 ft 183 kts 135°
2026-05-08 14:29 52.62329 8.76337 8729 ft 182 kts 134°
2026-05-08 14:29 52.61464 8.77846 8516 ft 181 kts 136°
2026-05-08 14:30 52.60360 8.78712 8273 ft 180 kts 175°
2026-05-08 14:30 52.59187 8.78159 8071 ft 180 kts 214°
2026-05-08 14:30 52.58253 8.76767 7838 ft 180 kts 223°
2026-05-08 14:30 52.57372 8.75342 7628 ft 180 kts 223°
2026-05-08 14:31 52.56481 8.73893 7408 ft 179 kts 223°
2026-05-08 14:31 52.55603 8.72457 7197 ft 178 kts 224°
2026-05-08 14:31 52.54727 8.71021 6984 ft 177 kts 220°
2026-05-08 14:32 52.52679 8.68794 6505 ft 179 kts 220°
2026-05-08 14:32 52.51760 8.67330 6096 ft 188 kts 223°
2026-05-08 14:32 52.50844 8.65826 5819 ft 186 kts 223°
2026-05-08 14:32 52.49912 8.64335 5524 ft 186 kts 223°
2026-05-08 14:33 52.49047 8.62746 5221 ft 187 kts 229°
2026-05-08 14:33 52.48217 8.61111 4947 ft 187 kts 229°
2026-05-08 14:33 52.47390 8.59478 4672 ft 187 kts 229°
2026-05-08 14:33 52.46551 8.57823 4403 ft 186 kts 228°
2026-05-08 14:34 52.45737 8.56209 4144 ft 186 kts 229°
2026-05-08 14:34 52.44906 8.54563 3897 ft 186 kts 228°
2026-05-08 14:34 52.44085 8.52939 3666 ft 185 kts 228°
2026-05-08 14:34 52.43301 8.51380 3650 ft 174 kts 228°
2026-05-08 14:35 52.42545 8.49877 3638 ft 168 kts 228°
2026-05-08 14:35 52.41805 8.48413 3580 ft 168 kts 228°
2026-05-08 14:35 52.41062 8.46937 3506 ft 166 kts 229°
2026-05-08 14:35 52.40493 8.45321 3491 ft 162 kts 244°
2026-05-08 14:36 52.40029 8.43675 3491 ft 158 kts 243°
2026-05-08 14:36 52.39563 8.42045 3487 ft 157 kts 243°
2026-05-08 14:36 52.39099 8.40426 3485 ft 157 kts 243°
2026-05-08 14:36 52.38636 8.38806 3490 ft 159 kts 243°
2026-05-08 14:37 52.38172 8.37159 3494 ft 158 kts 243°
2026-05-08 14:37 52.37718 8.35548 3494 ft 158 kts 243°
2026-05-08 14:37 52.37251 8.33896 3492 ft 159 kts 243°
2026-05-08 14:37 52.36789 8.32259 3493 ft 160 kts 243°
2026-05-08 14:38 52.36382 8.30567 3496 ft 161 kts 250°
2026-05-08 14:38 52.36075 8.28816 3487 ft 160 kts 253°
2026-05-08 14:38 52.35782 8.27063 3490 ft 161 kts 253°
2026-05-08 14:38 52.35485 8.25275 3499 ft 163 kts 253°
2026-05-08 14:39 52.35186 8.23485 3506 ft 164 kts 253°
2026-05-08 14:39 52.34883 8.21676 3511 ft 165 kts 253°
2026-05-08 14:39 52.34574 8.19848 3498 ft 167 kts 253°
2026-05-08 14:39 52.34264 8.18019 3496 ft 165 kts 253°
2026-05-08 14:40 52.33962 8.16215 3493 ft 166 kts 253°
2026-05-08 14:40 52.33652 8.14392 3502 ft 166 kts 253°
2026-05-08 14:40 52.33386 8.12562 3507 ft 166 kts 258°
2026-05-08 14:40 52.33169 8.10707 3499 ft 166 kts 258°
2026-05-08 14:41 52.32952 8.08842 3501 ft 167 kts 258°
2026-05-08 14:41 52.32735 8.06976 3501 ft 167 kts 258°
2026-05-08 14:41 52.32518 8.05103 3502 ft 168 kts 258°
2026-05-08 14:41 52.32298 8.03232 3505 ft 168 kts 258°
2026-05-08 14:42 52.32079 8.01372 3513 ft 168 kts 258°
2026-05-08 14:42 52.31855 7.99468 3496 ft 169 kts 259°
2026-05-08 14:42 52.31706 7.97571 3498 ft 168 kts 262°
2026-05-08 14:42 52.31580 7.95670 3495 ft 168 kts 263°
2026-05-08 14:43 52.31497 7.94405 3496 ft 167 kts 263°
2026-05-08 14:43 52.31371 7.92527 3504 ft 168 kts 263°
2026-05-08 14:43 52.31207 7.90011 3503 ft 167 kts 263°
2026-05-08 14:43 52.31083 7.88109 3500 ft 169 kts 263°
2026-05-08 14:44 52.30994 7.86830 3502 ft 167 kts 263°
2026-05-08 14:44 52.30863 7.84942 3496 ft 167 kts 263°
2026-05-08 14:44 52.30734 7.83066 3495 ft 167 kts 263°
2026-05-08 14:44 52.30606 7.81186 3497 ft 166 kts 263°
2026-05-08 14:45 52.30481 7.79310 3500 ft 167 kts 263°
2026-05-08 14:45 52.30357 7.77423 3495 ft 167 kts 263°
2026-05-08 14:45 52.30228 7.75536 3495 ft 166 kts 263°
2026-05-08 14:45 52.30103 7.73672 3501 ft 166 kts 263°
2026-05-08 14:46 52.29955 7.71818 3492 ft 164 kts 253°
2026-05-08 14:46 52.29359 7.70245 3501 ft 161 kts 230°
2026-05-08 14:46 52.28720 7.68747 3499 ft 162 kts 236°
2026-05-08 14:46 52.28144 7.67166 3507 ft 163 kts 238°
2026-05-08 14:47 52.27575 7.65520 3504 ft 167 kts 239°
2026-05-08 14:47 52.27017 7.63892 3509 ft 165 kts 239°
2026-05-08 14:47 52.26449 7.62238 3514 ft 166 kts 239°
2026-05-08 14:47 52.25878 7.60587 3510 ft 167 kts 239°
2026-05-08 14:48 52.25309 7.58932 3509 ft 166 kts 239°
2026-05-08 14:48 52.24743 7.57297 3500 ft 167 kts 239°
2026-05-08 14:48 52.24173 7.55633 3508 ft 168 kts 239°
2026-05-08 14:48 52.23596 7.53961 3503 ft 169 kts 238°
2026-05-08 14:49 52.23016 7.52294 3496 ft 168 kts 239°
2026-05-08 14:49 52.22445 7.50642 3493 ft 166 kts 239°
2026-05-08 14:49 52.21881 7.49007 3494 ft 166 kts 239°
2026-05-08 14:49 52.21315 7.47363 3492 ft 167 kts 239°
2026-05-08 14:50 52.20735 7.45698 3494 ft 168 kts 239°
2026-05-08 14:50 52.20164 7.44054 3498 ft 167 kts 239°
2026-05-08 14:50 52.19598 7.42416 3492 ft 165 kts 239°
2026-05-08 14:50 52.19032 7.40786 3489 ft 164 kts 238°
2026-05-08 14:51 52.18470 7.39167 3498 ft 165 kts 239°
2026-05-08 14:51 52.17900 7.37535 3491 ft 165 kts 238°
2026-05-08 14:51 52.17338 7.35914 3487 ft 166 kts 238°
2026-05-08 14:51 52.16769 7.34277 3489 ft 165 kts 238°
2026-05-08 14:52 52.16196 7.32634 3496 ft 166 kts 238°
2026-05-08 14:52 52.15057 7.29367 3487 ft 165 kts 239°
2026-05-08 14:52 52.14483 7.27722 3487 ft 167 kts 239°
2026-05-08 14:53 52.13915 7.26094 3487 ft 166 kts 238°
2026-05-08 14:53 52.13346 7.24462 3487 ft 166 kts 238°
2026-05-08 14:53 52.12777 7.22834 3489 ft 167 kts 238°
2026-05-08 14:53 52.12206 7.21199 3491 ft 166 kts 239°
2026-05-08 14:54 52.11635 7.19572 3486 ft 165 kts 238°
2026-05-08 14:54 52.11066 7.17947 3482 ft 165 kts 239°
2026-05-08 14:54 52.10500 7.16333 3481 ft 165 kts 238°
2026-05-08 14:54 52.09935 7.14721 3476 ft 164 kts 239°
2026-05-08 14:55 52.09369 7.13109 3476 ft 165 kts 238°
2026-05-08 14:55 52.08799 7.11488 3486 ft 165 kts 239°
2026-05-08 14:55 52.08229 7.09858 3477 ft 166 kts 238°
2026-05-08 14:55 52.07651 7.08229 3478 ft 165 kts 238°
2026-05-08 14:56 52.07081 7.06603 3473 ft 164 kts 239°
2026-05-08 14:56 52.06522 7.05006 3473 ft 165 kts 238°
2026-05-08 14:56 52.05946 7.03379 3479 ft 166 kts 238°
2026-05-08 14:56 52.05377 7.01761 3471 ft 166 kts 238°
2026-05-08 14:57 52.04806 7.00142 3478 ft 165 kts 238°
2026-05-08 14:57 52.04232 6.98512 3480 ft 165 kts 238°
2026-05-08 14:57 52.03664 6.96907 3469 ft 165 kts 239°
2026-05-08 14:57 52.03088 6.95275 3473 ft 166 kts 238°
2026-05-08 14:58 52.02519 6.93671 3470 ft 165 kts 238°
2026-05-08 14:58 52.01939 6.92036 3475 ft 165 kts 238°
2026-05-08 14:58 52.01374 6.90432 3478 ft 165 kts 238°
2026-05-08 14:58 52.00797 6.88818 3474 ft 167 kts 238°
2026-05-08 14:59 52.00223 6.87183 3473 ft 166 kts 239°
2026-05-08 14:59 51.99065 6.83942 3468 ft 167 kts 239°
2026-05-08 14:59 51.98487 6.82299 3470 ft 165 kts 238°
2026-05-08 15:00 51.97917 6.80695 3463 ft 166 kts 239°
2026-05-08 15:00 51.97344 6.79087 3470 ft 166 kts 239°
2026-05-08 15:00 51.96756 6.77431 3476 ft 170 kts 238°
2026-05-08 15:00 51.96166 6.75782 3469 ft 169 kts 239°
2026-05-08 15:01 51.95582 6.74136 3470 ft 169 kts 239°
2026-05-08 15:01 51.94992 6.72478 3465 ft 167 kts 238°
2026-05-08 15:01 51.94421 6.70858 3464 ft 166 kts 240°
2026-05-08 15:01 51.93960 6.69122 3493 ft 165 kts 248°
2026-05-08 15:02 51.93549 6.67392 3488 ft 166 kts 248°
2026-05-08 15:02 51.93137 6.65654 3496 ft 165 kts 248°
2026-05-08 15:02 51.92726 6.63927 3502 ft 164 kts 248°
2026-05-08 15:02 51.92305 6.62168 3504 ft 167 kts 248°
2026-05-08 15:03 51.91884 6.60418 3499 ft 166 kts 248°
2026-05-08 15:03 51.91506 6.58652 3504 ft 166 kts 252°
2026-05-08 15:03 51.91228 6.56834 3499 ft 166 kts 257°
2026-05-08 15:03 51.90992 6.55004 3499 ft 166 kts 258°
2026-05-08 15:04 51.90887 6.53155 3495 ft 166 kts 268°
2026-05-08 15:04 51.90850 6.51301 3501 ft 167 kts 268°
2026-05-08 15:04 51.90812 6.49413 3495 ft 165 kts 268°
2026-05-08 15:04 51.90773 6.47570 3493 ft 164 kts 268°
2026-05-08 15:05 51.90735 6.45729 3496 ft 164 kts 268°
2026-05-08 15:05 51.90693 6.43876 3505 ft 164 kts 268°
2026-05-08 15:05 51.90651 6.42037 3500 ft 165 kts 268°
2026-05-08 15:05 51.90606 6.40186 3500 ft 165 kts 268°
2026-05-08 15:06 51.90564 6.38322 3500 ft 164 kts 268°
2026-05-08 15:06 51.90521 6.36461 3496 ft 165 kts 268°
2026-05-08 15:06 51.90483 6.34624 3500 ft 164 kts 268°
2026-05-08 15:06 51.90435 6.32764 3487 ft 166 kts 267°
2026-05-08 15:07 51.90389 6.30892 3497 ft 165 kts 268°
2026-05-08 15:07 51.90349 6.29050 3494 ft 165 kts 268°
2026-05-08 15:07 51.90303 6.27190 3494 ft 164 kts 268°
2026-05-08 15:07 51.90257 6.25351 3498 ft 165 kts 268°
2026-05-08 15:08 51.90215 6.23497 3490 ft 167 kts 268°
2026-05-08 15:08 51.90186 6.22244 3486 ft 166 kts 268°
2026-05-08 15:08 51.90128 6.19766 3484 ft 164 kts 268°
2026-05-08 15:08 51.90084 6.17921 3486 ft 165 kts 268°
2026-05-08 15:09 51.90040 6.16061 3486 ft 164 kts 268°
2026-05-08 15:09 51.89994 6.14223 3489 ft 165 kts 268°
2026-05-08 15:09 51.89947 6.12345 3487 ft 165 kts 268°
2026-05-08 15:09 51.89900 6.10500 3488 ft 165 kts 268°
2026-05-08 15:10 51.89853 6.08635 3487 ft 164 kts 268°
2026-05-08 15:10 51.89805 6.06794 3499 ft 162 kts 267°
2026-05-08 15:10 51.89759 6.04996 3499 ft 162 kts 268°
2026-05-08 15:10 51.89715 6.03162 3494 ft 161 kts 267°
2026-05-08 15:11 51.89668 6.01356 3501 ft 161 kts 268°
2026-05-08 15:11 51.89621 5.99543 3503 ft 162 kts 268°
2026-05-08 15:11 51.89571 5.97726 3497 ft 162 kts 268°
2026-05-08 15:11 51.89519 5.95897 3499 ft 162 kts 268°
2026-05-08 15:12 51.89469 5.94091 3499 ft 163 kts 267°
2026-05-08 15:12 51.89417 5.92235 3498 ft 163 kts 268°
2026-05-08 15:12 51.89366 5.90415 3499 ft 162 kts 268°
2026-05-08 15:12 51.89308 5.88603 3501 ft 161 kts 265°
2026-05-08 15:13 51.89171 5.86802 3495 ft 161 kts 262°
2026-05-08 15:13 51.89023 5.84992 3500 ft 161 kts 263°
2026-05-08 15:13 51.88876 5.83202 3499 ft 162 kts 262°
2026-05-08 15:13 51.88729 5.81400 3498 ft 162 kts 262°
2026-05-08 15:14 51.88583 5.79600 3502 ft 162 kts 263°
2026-05-08 15:14 51.88436 5.77784 3498 ft 161 kts 262°
2026-05-08 15:14 51.88292 5.75992 3499 ft 161 kts 263°
2026-05-08 15:14 51.88149 5.74205 3496 ft 161 kts 263°
2026-05-08 15:15 51.88001 5.72398 3495 ft 160 kts 262°
2026-05-08 15:15 51.87823 5.70627 3495 ft 160 kts 258°
2026-05-08 15:15 51.87580 5.68856 3496 ft 160 kts 257°
2026-05-08 15:15 51.87340 5.67119 3495 ft 161 kts 257°
2026-05-08 15:16 51.87095 5.65345 3498 ft 162 kts 257°
2026-05-08 15:16 51.86830 5.63550 3500 ft 162 kts 253°
2026-05-08 15:16 51.86495 5.61812 3500 ft 163 kts 252°
2026-05-08 15:16 51.86154 5.60057 3506 ft 164 kts 252°
2026-05-08 15:17 51.85812 5.58306 3504 ft 163 kts 252°
2026-05-08 15:17 51.85468 5.56559 3501 ft 163 kts 252°
2026-05-08 15:17 51.85124 5.54812 3506 ft 163 kts 252°
2026-05-08 15:17 51.84775 5.53045 3502 ft 163 kts 252°
2026-05-08 15:18 51.84432 5.51302 3506 ft 164 kts 252°
2026-05-08 15:18 51.84081 5.49534 3502 ft 164 kts 252°
2026-05-08 15:18 51.83738 5.47785 3505 ft 164 kts 252°
2026-05-08 15:18 51.83390 5.46030 3501 ft 164 kts 252°
2026-05-08 15:19 51.83042 5.44269 3507 ft 164 kts 252°
2026-05-08 15:19 51.82690 5.42499 3506 ft 167 kts 252°
2026-05-08 15:19 51.82335 5.40713 3500 ft 169 kts 252°
2026-05-08 15:19 51.81971 5.38888 3503 ft 169 kts 252°
2026-05-08 15:20 51.81612 5.37083 3504 ft 170 kts 252°
2026-05-08 15:20 51.81250 5.35265 3503 ft 171 kts 252°
2026-05-08 15:20 51.80885 5.33429 3502 ft 170 kts 252°
2026-05-08 15:20 51.80523 5.31613 3502 ft 170 kts 252°
2026-05-08 15:21 51.80159 5.29795 3500 ft 170 kts 252°
2026-05-08 15:21 51.79798 5.27986 3501 ft 170 kts 252°
2026-05-08 15:21 51.79436 5.26168 3505 ft 171 kts 252°
2026-05-08 15:21 51.79071 5.24342 3503 ft 171 kts 252°
2026-05-08 15:22 51.78705 5.22513 3507 ft 171 kts 252°
2026-05-08 15:22 51.78461 5.21293 3503 ft 171 kts 252°
2026-05-08 15:22 51.78100 5.19470 3503 ft 171 kts 252°
2026-05-08 15:22 51.77735 5.17636 3503 ft 171 kts 252°
2026-05-08 15:23 51.77372 5.15817 3502 ft 170 kts 252°
2026-05-08 15:23 51.77006 5.13996 3502 ft 171 kts 252°
2026-05-08 15:23 51.76645 5.12176 3497 ft 170 kts 252°
2026-05-08 15:23 51.76275 5.10343 3499 ft 171 kts 252°
2026-05-08 15:24 51.75910 5.08530 3503 ft 171 kts 252°
2026-05-08 15:24 51.75545 5.06686 3502 ft 172 kts 252°
2026-05-08 15:24 51.75179 5.04850 3503 ft 172 kts 252°
2026-05-08 15:24 51.74811 5.03004 3505 ft 172 kts 252°
2026-05-08 15:25 51.74446 5.01179 3502 ft 172 kts 252°
2026-05-08 15:25 51.74077 4.99340 3509 ft 172 kts 252°
2026-05-08 15:25 51.73709 4.97491 3501 ft 172 kts 252°
2026-05-08 15:25 51.73346 4.95677 3500 ft 172 kts 252°
2026-05-08 15:26 51.72978 4.93826 3525 ft 173 kts 252°
2026-05-08 15:26 51.72613 4.91992 3730 ft 174 kts 252°
2026-05-08 15:26 51.72242 4.90145 3995 ft 174 kts 252°
2026-05-08 15:26 51.71867 4.88275 4267 ft 174 kts 252°
2026-05-08 15:27 51.71496 4.86412 4496 ft 176 kts 252°
2026-05-08 15:27 51.71118 4.84511 4487 ft 180 kts 252°
2026-05-08 15:27 51.70731 4.82596 4493 ft 182 kts 252°
2026-05-08 15:27 51.70337 4.80657 4503 ft 184 kts 252°
2026-05-08 15:28 51.69934 4.78675 4506 ft 186 kts 252°
2026-05-08 15:28 51.69534 4.76693 4507 ft 186 kts 252°
2026-05-08 15:28 51.69133 4.74713 4505 ft 187 kts 252°
2026-05-08 15:28 51.68729 4.72718 4504 ft 188 kts 252°
2026-05-08 15:29 51.68321 4.70712 4504 ft 187 kts 252°
2026-05-08 15:29 51.67922 4.68737 4504 ft 187 kts 252°
2026-05-08 15:29 51.67516 4.66719 4503 ft 187 kts 252°
2026-05-08 15:29 51.67116 4.64731 4503 ft 187 kts 252°
2026-05-08 15:30 51.66714 4.62730 4504 ft 188 kts 252°
2026-05-08 15:30 51.66311 4.60724 4504 ft 188 kts 252°
2026-05-08 15:30 51.65909 4.58726 4501 ft 188 kts 252°
2026-05-08 15:30 51.65506 4.56731 4501 ft 188 kts 252°
2026-05-08 15:31 51.65100 4.54712 4491 ft 188 kts 252°
2026-05-08 15:31 51.64696 4.52706 4493 ft 189 kts 252°
2026-05-08 15:31 51.64296 4.50713 4489 ft 189 kts 252°
2026-05-08 15:31 51.63889 4.48686 4490 ft 189 kts 251°
2026-05-08 15:32 51.63164 4.46969 4479 ft 187 kts 225°
2026-05-08 15:32 51.62415 4.45270 4473 ft 187 kts 245°
2026-05-08 15:32 51.61904 4.43347 4479 ft 188 kts 247°
2026-05-08 15:32 51.61404 4.41398 4474 ft 189 kts 248°
2026-05-08 15:33 51.60908 4.39420 4477 ft 189 kts 248°
2026-05-08 15:33 51.60420 4.37458 4483 ft 190 kts 248°
2026-05-08 15:33 51.59931 4.35500 4478 ft 190 kts 248°
2026-05-08 15:33 51.59434 4.33522 4479 ft 190 kts 248°
2026-05-08 15:34 51.58947 4.31552 4481 ft 191 kts 248°
2026-05-08 15:34 51.58447 4.29555 4481 ft 192 kts 248°
2026-05-08 15:34 51.57948 4.27570 4479 ft 192 kts 248°
2026-05-08 15:34 51.57452 4.25586 4483 ft 191 kts 248°
2026-05-08 15:35 51.56959 4.23613 4481 ft 191 kts 248°
2026-05-08 15:35 51.56458 4.21619 4480 ft 191 kts 248°
2026-05-08 15:35 51.55965 4.19646 4477 ft 191 kts 248°
2026-05-08 15:35 51.55471 4.17673 4481 ft 191 kts 248°
2026-05-08 15:36 51.55067 4.15634 4480 ft 191 kts 260°
2026-05-08 15:36 51.54903 4.13528 4478 ft 189 kts 268°
2026-05-08 15:36 51.54904 4.11447 4471 ft 182 kts 270°
2026-05-08 15:36 51.54878 4.09445 4474 ft 178 kts 269°
2026-05-08 15:37 51.54854 4.07456 4474 ft 176 kts 269°
2026-05-08 15:37 51.54829 4.05500 4478 ft 175 kts 269°
2026-05-08 15:37 51.54803 4.03558 4476 ft 174 kts 269°
2026-05-08 15:37 51.54778 4.01627 4474 ft 173 kts 269°
2026-05-08 15:38 51.54672 3.99694 4477 ft 172 kts 262°
2026-05-08 15:38 51.54507 3.97799 4478 ft 172 kts 262°
2026-05-08 15:38 51.54347 3.95918 4483 ft 171 kts 262°
2026-05-08 15:38 51.54188 3.94044 4492 ft 170 kts 262°
2026-05-08 15:39 51.54027 3.92145 4495 ft 170 kts 262°
2026-05-08 15:39 51.53869 3.90272 4517 ft 172 kts 262°
2026-05-08 15:39 51.53706 3.88350 4695 ft 174 kts 262°
2026-05-08 15:39 51.53541 3.86412 4887 ft 174 kts 262°
2026-05-08 15:40 51.53376 3.84470 5041 ft 175 kts 262°
2026-05-08 15:40 51.53218 3.82550 5227 ft 174 kts 262°
2026-05-08 15:40 51.53059 3.80615 5308 ft 179 kts 262°
2026-05-08 15:40 51.52891 3.78619 5309 ft 182 kts 262°
2026-05-08 15:41 51.52729 3.76590 5317 ft 184 kts 262°
2026-05-08 15:41 51.52564 3.74525 5318 ft 185 kts 262°
2026-05-08 15:41 51.52358 3.72490 5318 ft 186 kts 255°
2026-05-08 15:41 51.51987 3.70528 5318 ft 184 kts 249°
2026-05-08 15:42 51.51451 3.68669 5315 ft 183 kts 242°
2026-05-08 15:42 51.50854 3.66851 5318 ft 181 kts 235°
2026-05-08 15:42 51.50053 3.65308 5295 ft 180 kts 233°
2026-05-08 15:42 51.49236 3.63775 5285 ft 182 kts 225°
2026-05-08 15:43 51.48360 3.62294 5285 ft 182 kts 225°
2026-05-08 15:43 51.47488 3.60836 5289 ft 183 kts 225°
2026-05-08 15:43 51.46605 3.59350 5285 ft 182 kts 225°
2026-05-08 15:43 51.45731 3.57886 5285 ft 181 kts 225°
2026-05-08 15:44 51.44860 3.56426 5286 ft 183 kts 225°
2026-05-08 15:44 51.43980 3.54948 5278 ft 181 kts 225°
2026-05-08 15:44 51.43120 3.53501 5278 ft 180 kts 225°
2026-05-08 15:44 51.42263 3.52031 5277 ft 180 kts 229°
2026-05-08 15:45 51.41531 3.50382 5273 ft 179 kts 235°
2026-05-08 15:45 51.40842 3.48719 5269 ft 179 kts 234°
2026-05-08 15:45 51.40154 3.47061 5345 ft 179 kts 234°
2026-05-08 15:45 51.39571 3.45319 5453 ft 180 kts 255°
2026-05-08 15:46 51.39515 3.43338 5566 ft 181 kts 271°
2026-05-08 15:46 51.39572 3.41322 5839 ft 180 kts 271°
2026-05-08 15:46 51.39632 3.39296 6110 ft 180 kts 271°
2026-05-08 15:46 51.39697 3.37305 6363 ft 181 kts 271°
2026-05-08 15:47 51.39765 3.35284 6614 ft 181 kts 271°
2026-05-08 15:47 51.39834 3.33266 6849 ft 182 kts 272°
2026-05-08 15:47 51.39900 3.31245 7089 ft 182 kts 272°
2026-05-08 15:47 51.39962 3.29224 7324 ft 182 kts 272°
2026-05-08 15:48 51.40077 3.25174 7789 ft 183 kts 271°
2026-05-08 15:48 51.40131 3.23156 8014 ft 183 kts 272°
2026-05-08 15:48 51.40182 3.21100 8246 ft 183 kts 272°
2026-05-08 15:49 51.40229 3.19073 8469 ft 184 kts 272°
2026-05-08 15:49 51.40273 3.17032 8696 ft 184 kts 272°
2026-05-08 15:49 51.40340 3.14990 8914 ft 184 kts 276°
2026-05-08 15:49 51.40490 3.12959 9142 ft 184 kts 277°
2026-05-08 15:50 51.40631 3.10928 9360 ft 184 kts 277°
2026-05-08 15:50 51.40766 3.08900 9595 ft 183 kts 277°
2026-05-08 15:50 51.40901 3.06821 9622 ft 192 kts 277°
2026-05-08 15:50 51.41043 3.04645 9627 ft 196 kts 277°
2026-05-08 15:51 51.41182 3.02478 9634 ft 198 kts 277°
2026-05-08 15:51 51.41323 3.00262 9630 ft 200 kts 277°
2026-05-08 15:51 51.41462 2.98052 9629 ft 199 kts 277°
2026-05-08 15:51 51.41596 2.95884 9628 ft 194 kts 277°
2026-05-08 15:52 51.41727 2.93721 9626 ft 192 kts 276°
2026-05-08 15:52 51.41851 2.91612 9621 ft 190 kts 276°
2026-05-08 15:52 51.41996 2.89508 9617 ft 189 kts 279°
2026-05-08 15:52 51.42220 2.87460 9617 ft 187 kts 281°
2026-05-08 15:53 51.42456 2.85422 9620 ft 187 kts 282°
2026-05-08 15:53 51.42691 2.83381 9611 ft 186 kts 281°
2026-05-08 15:53 51.42925 2.81331 9607 ft 186 kts 282°
2026-05-08 15:53 51.43152 2.79304 9615 ft 186 kts 282°
2026-05-08 15:54 51.43381 2.77265 9614 ft 186 kts 282°
2026-05-08 15:54 51.43610 2.75216 9615 ft 185 kts 282°
2026-05-08 15:54 51.43837 2.73187 9613 ft 185 kts 282°
2026-05-08 15:54 51.44063 2.71165 9612 ft 185 kts 282°
2026-05-08 15:55 51.44287 2.69140 9612 ft 185 kts 282°
2026-05-08 15:55 51.44734 2.65092 9612 ft 184 kts 282°
2026-05-08 15:55 51.44955 2.63082 9612 ft 184 kts 282°
2026-05-08 15:56 51.45181 2.61041 9612 ft 184 kts 282°
2026-05-08 15:56 51.45405 2.59024 9611 ft 184 kts 281°
2026-05-08 15:56 51.45631 2.57007 9610 ft 184 kts 281°
2026-05-08 15:56 51.45855 2.55023 9382 ft 183 kts 281°
2026-05-08 15:57 51.46088 2.53008 9053 ft 184 kts 282°
2026-05-08 15:57 51.46328 2.50975 8675 ft 187 kts 281°
2026-05-08 15:57 51.46575 2.48926 8301 ft 188 kts 281°
2026-05-08 15:57 51.46831 2.46875 7948 ft 188 kts 281°
2026-05-08 15:58 51.47096 2.44818 7610 ft 188 kts 282°
2026-05-08 15:58 51.47365 2.42774 7283 ft 188 kts 282°
2026-05-08 15:58 51.47645 2.40703 6949 ft 189 kts 282°
2026-05-08 15:58 51.47867 2.38629 6613 ft 188 kts 274°
2026-05-08 15:59 51.47577 2.36645 6245 ft 187 kts 236°
2026-05-08 15:59 51.46591 2.35408 5744 ft 180 kts 198°
2026-05-08 15:59 51.45360 2.35145 5046 ft 179 kts 182°
2026-05-08 15:59 51.44105 2.35058 4358 ft 178 kts 181°
2026-05-08 16:00 51.42864 2.34963 4001 ft 175 kts 182°
2026-05-08 16:00 51.41673 2.34868 3998 ft 167 kts 182°
2026-05-08 16:00 51.40535 2.34773 3988 ft 162 kts 181°
2026-05-08 16:00 51.39431 2.34680 3987 ft 158 kts 181°
2026-05-08 16:01 51.38360 2.34396 3989 ft 156 kts 200°
2026-05-08 16:01 51.37381 2.33626 3988 ft 156 kts 205°
2026-05-08 16:01 51.36422 2.32859 4068 ft 154 kts 205°
2026-05-08 16:01 51.35462 2.32092 4200 ft 155 kts 204°
2026-05-08 16:02 51.34498 2.31326 4329 ft 157 kts 204°
2026-05-08 16:02 51.33543 2.30478 4466 ft 157 kts 216°
2026-05-08 16:02 51.32716 2.29335 4597 ft 158 kts 220°
2026-05-08 16:02 51.31954 2.28063 4719 ft 160 kts 238°
2026-05-08 16:03 51.31506 2.26445 4850 ft 161 kts 245°
2026-05-08 16:03 51.31067 2.24763 4985 ft 167 kts 245°
2026-05-08 16:03 51.30609 2.22997 5129 ft 176 kts 246°
2026-05-08 16:03 51.30134 2.21155 5271 ft 182 kts 246°
2026-05-08 16:04 51.29650 2.19279 5406 ft 185 kts 246°
2026-05-08 16:04 51.29320 2.18000 5499 ft 187 kts 246°
2026-05-08 16:04 51.28823 2.16078 5674 ft 187 kts 246°
2026-05-08 16:04 51.28332 2.14185 5928 ft 183 kts 246°
2026-05-08 16:05 51.27847 2.12317 6182 ft 181 kts 247°
2026-05-08 16:05 51.27362 2.10451 6440 ft 180 kts 247°
2026-05-08 16:05 51.26880 2.08596 6503 ft 183 kts 248°
2026-05-08 16:05 51.26393 2.06714 6452 ft 185 kts 247°
2026-05-08 16:06 51.25901 2.04824 6413 ft 184 kts 247°
2026-05-08 16:06 51.25407 2.02929 6419 ft 183 kts 247°
2026-05-08 16:06 51.24921 2.01064 6412 ft 182 kts 247°
2026-05-08 16:06 51.24430 1.99185 6412 ft 182 kts 247°
2026-05-08 16:07 51.23749 1.97543 6405 ft 180 kts 225°
2026-05-08 16:07 51.22837 1.96132 6378 ft 182 kts 225°
2026-05-08 16:07 51.21968 1.94657 6304 ft 185 kts 228°
2026-05-08 16:07 51.21120 1.93124 6228 ft 186 kts 229°
2026-05-08 16:08 51.20251 1.91546 6151 ft 188 kts 228°
2026-05-08 16:08 51.19398 1.90004 6111 ft 183 kts 228°
2026-05-08 16:08 51.18563 1.88499 6107 ft 178 kts 228°
2026-05-08 16:08 51.17752 1.87039 6099 ft 176 kts 228°
2026-05-08 16:09 51.16946 1.85589 6098 ft 174 kts 228°
2026-05-08 16:09 51.16141 1.84141 6098 ft 173 kts 228°
2026-05-08 16:09 51.15348 1.82714 6093 ft 172 kts 228°
2026-05-08 16:09 51.14559 1.81296 6094 ft 171 kts 228°
2026-05-08 16:10 51.13774 1.79885 6090 ft 171 kts 228°
2026-05-08 16:10 51.12989 1.78477 6097 ft 171 kts 228°
2026-05-08 16:10 51.12202 1.77063 6098 ft 170 kts 228°
2026-05-08 16:10 51.11411 1.75645 6100 ft 170 kts 228°
2026-05-08 16:11 51.10624 1.74235 6099 ft 170 kts 229°
2026-05-08 16:11 51.09841 1.72831 6097 ft 170 kts 229°
2026-05-08 16:11 51.09050 1.71415 6098 ft 170 kts 228°
2026-05-08 16:11 51.08268 1.70014 6099 ft 169 kts 228°
2026-05-08 16:12 51.07492 1.68627 6098 ft 169 kts 229°
2026-05-08 16:12 51.06705 1.67220 6103 ft 169 kts 229°
2026-05-08 16:12 51.05918 1.65814 6097 ft 169 kts 229°
2026-05-08 16:12 51.05145 1.64434 6097 ft 169 kts 228°
2026-05-08 16:13 51.04359 1.63031 6104 ft 169 kts 229°
2026-05-08 16:13 51.03577 1.61635 6099 ft 169 kts 229°
2026-05-08 16:13 51.02792 1.60234 6100 ft 169 kts 228°
2026-05-08 16:13 51.02018 1.58856 6103 ft 169 kts 228°
2026-05-08 16:14 51.01232 1.57458 6101 ft 169 kts 228°
2026-05-08 16:14 51.00448 1.56061 6103 ft 169 kts 228°
2026-05-08 16:14 50.99670 1.54678 6105 ft 169 kts 228°
2026-05-08 16:14 50.98890 1.53293 6328 ft 165 kts 228°
2026-05-08 16:15 50.98134 1.51954 6571 ft 163 kts 229°
2026-05-08 16:15 50.97378 1.50613 6817 ft 162 kts 229°
2026-05-08 16:15 50.96633 1.49290 7067 ft 161 kts 229°
2026-05-08 16:15 50.95869 1.47933 7098 ft 170 kts 229°
2026-05-08 16:16 50.95051 1.46515 7103 ft 176 kts 222°
2026-05-08 16:16 50.93922 1.45832 7105 ft 182 kts 180°
2026-05-08 16:16 50.92689 1.46300 7110 ft 185 kts 162°
2026-05-08 16:16 50.91471 1.46983 7310 ft 181 kts 161°
2026-05-08 16:17 50.90309 1.47641 7558 ft 177 kts 161°
2026-05-08 16:17 50.89543 1.48055 7720 ft 174 kts 166°
2026-05-08 16:17 50.87962 1.48539 8055 ft 172 kts 171°
2026-05-08 16:17 50.86786 1.48866 8307 ft 171 kts 171°
2026-05-08 16:18 50.85635 1.49185 8557 ft 170 kts 171°
2026-05-08 16:18 50.84466 1.49509 8815 ft 170 kts 171°
2026-05-08 16:18 50.83294 1.49683 9070 ft 169 kts 180°
2026-05-08 16:18 50.82127 1.49687 9333 ft 168 kts 181°
2026-05-08 16:19 50.80946 1.49693 9579 ft 169 kts 181°
2026-05-08 16:19 50.79727 1.49697 9594 ft 182 kts 181°
2026-05-08 16:19 50.78430 1.49697 9597 ft 190 kts 181°
2026-05-08 16:19 50.77074 1.49695 9596 ft 195 kts 181°
2026-05-08 16:20 50.75714 1.49691 9597 ft 197 kts 181°
2026-05-08 16:20 50.74340 1.49685 9595 ft 199 kts 181°
2026-05-08 16:20 50.72954 1.49674 9588 ft 200 kts 181°
2026-05-08 16:20 50.71567 1.49662 9591 ft 200 kts 181°
2026-05-08 16:21 50.70170 1.49648 9588 ft 201 kts 181°
2026-05-08 16:21 50.68782 1.49636 9585 ft 198 kts 181°
2026-05-08 16:21 50.67398 1.49621 9582 ft 196 kts 181°
2026-05-08 16:21 50.66045 1.49608 9580 ft 195 kts 181°
2026-05-08 16:22 50.64782 1.49031 9569 ft 191 kts 216°
2026-05-08 16:22 50.64036 1.47351 9568 ft 189 kts 253°
2026-05-08 16:22 50.63553 1.45444 9579 ft 188 kts 239°
2026-05-08 16:22 50.62828 1.43733 9576 ft 187 kts 237°
2026-05-08 16:23 50.62158 1.42006 9588 ft 187 kts 240°
2026-05-08 16:23 50.61518 1.40198 9583 ft 187 kts 241°
2026-05-08 16:23 50.60886 1.38404 9588 ft 187 kts 241°
2026-05-08 16:23 50.60253 1.36622 9590 ft 187 kts 241°
2026-05-08 16:24 50.59619 1.34844 9597 ft 187 kts 241°
2026-05-08 16:24 50.58986 1.33067 9585 ft 187 kts 240°
2026-05-08 16:24 50.58351 1.31287 9585 ft 186 kts 240°
2026-05-08 16:24 50.57719 1.29515 9594 ft 186 kts 240°
2026-05-08 16:25 50.57087 1.27745 9586 ft 186 kts 240°
2026-05-08 16:25 50.56449 1.25959 9589 ft 186 kts 240°
2026-05-08 16:25 50.55822 1.24207 9589 ft 185 kts 240°
2026-05-08 16:25 50.55192 1.22444 9586 ft 185 kts 240°
2026-05-08 16:26 50.54561 1.20682 9592 ft 185 kts 240°
2026-05-08 16:26 50.53927 1.18912 9586 ft 185 kts 240°
2026-05-08 16:26 50.53296 1.17151 9592 ft 185 kts 240°
2026-05-08 16:26 50.52661 1.15384 9588 ft 185 kts 240°
2026-05-08 16:27 50.52031 1.13629 9587 ft 185 kts 240°
2026-05-08 16:27 50.51394 1.11855 9592 ft 185 kts 240°
2026-05-08 16:27 50.50767 1.10109 9590 ft 185 kts 240°
2026-05-08 16:27 50.50131 1.08342 9595 ft 185 kts 240°
2026-05-08 16:28 50.49505 1.06605 9600 ft 184 kts 240°
2026-05-08 16:28 50.48874 1.04854 9595 ft 184 kts 240°
2026-05-08 16:28 50.48241 1.03096 9598 ft 184 kts 240°
2026-05-08 16:28 50.47614 1.01360 9597 ft 184 kts 240°
2026-05-08 16:29 50.46981 0.99606 9601 ft 184 kts 240°
2026-05-08 16:29 50.46350 0.97858 9601 ft 184 kts 240°
2026-05-08 16:29 50.45716 0.96103 9601 ft 184 kts 240°
2026-05-08 16:29 50.45081 0.94349 9601 ft 184 kts 240°
2026-05-08 16:30 50.44458 0.92627 9595 ft 184 kts 240°
2026-05-08 16:30 50.43825 0.90881 9598 ft 184 kts 240°
2026-05-08 16:30 50.43194 0.89140 9598 ft 184 kts 240°
2026-05-08 16:30 50.42555 0.87377 9598 ft 184 kts 240°
2026-05-08 16:31 50.41921 0.85631 9597 ft 184 kts 240°
2026-05-08 16:31 50.41286 0.83884 9597 ft 184 kts 240°
2026-05-08 16:31 50.40657 0.82153 9597 ft 184 kts 240°
2026-05-08 16:31 50.40017 0.80393 9599 ft 184 kts 240°
2026-05-08 16:32 50.39383 0.78649 9601 ft 184 kts 240°
2026-05-08 16:32 50.38752 0.76918 9598 ft 184 kts 240°
2026-05-08 16:32 50.38119 0.75180 9596 ft 184 kts 240°
2026-05-08 16:32 50.37474 0.73415 9596 ft 184 kts 239°
2026-05-08 16:33 50.36850 0.71702 9599 ft 184 kts 239°
2026-05-08 16:33 50.36206 0.69940 9592 ft 184 kts 239°
2026-05-08 16:33 50.35574 0.68209 9592 ft 184 kts 239°
2026-05-08 16:33 50.34936 0.66464 9594 ft 184 kts 239°
2026-05-08 16:34 50.34300 0.64727 9595 ft 184 kts 239°
2026-05-08 16:34 50.33661 0.62982 9593 ft 184 kts 239°
2026-05-08 16:34 50.33022 0.61239 9593 ft 184 kts 239°
2026-05-08 16:34 50.32386 0.59503 9597 ft 184 kts 239°
2026-05-08 16:35 50.31756 0.57786 9593 ft 184 kts 239°
2026-05-08 16:35 50.31116 0.56042 9591 ft 184 kts 239°
2026-05-08 16:35 50.30482 0.54318 9592 ft 184 kts 239°
2026-05-08 16:35 50.29841 0.52575 9590 ft 183 kts 239°
2026-05-08 16:36 50.29214 0.50869 9589 ft 183 kts 239°
2026-05-08 16:36 50.28576 0.49138 9591 ft 183 kts 239°
2026-05-08 16:36 50.27938 0.47406 9590 ft 183 kts 239°
2026-05-08 16:36 50.27307 0.45692 9591 ft 183 kts 239°
2026-05-08 16:37 50.26667 0.43959 9590 ft 183 kts 239°
2026-05-08 16:37 50.26029 0.42232 9588 ft 183 kts 239°
2026-05-08 16:37 50.25397 0.40519 9592 ft 183 kts 239°
2026-05-08 16:37 50.24754 0.38780 9591 ft 183 kts 239°
2026-05-08 16:38 50.24113 0.37046 9591 ft 183 kts 239°
2026-05-08 16:38 50.23478 0.35331 9584 ft 183 kts 239°
2026-05-08 16:38 50.22840 0.33610 9586 ft 183 kts 240°
2026-05-08 16:38 50.22206 0.31897 9583 ft 183 kts 240°
2026-05-08 16:39 50.21577 0.30201 9582 ft 179 kts 239°
2026-05-08 16:39 50.20958 0.28534 9582 ft 177 kts 239°
2026-05-08 16:39 50.20342 0.26876 9578 ft 176 kts 239°
2026-05-08 16:39 50.19721 0.25204 9575 ft 176 kts 239°
2026-05-08 16:40 50.19117 0.23579 9575 ft 175 kts 239°
2026-05-08 16:40 50.18501 0.21925 9570 ft 175 kts 240°
2026-05-08 16:40 50.17891 0.20286 9572 ft 174 kts 239°
2026-05-08 16:40 50.17232 0.18700 9571 ft 174 kts 236°
2026-05-08 16:41 50.16553 0.17143 9569 ft 174 kts 236°
2026-05-08 16:41 50.15873 0.15586 9570 ft 173 kts 236°
2026-05-08 16:41 50.15194 0.14035 9575 ft 173 kts 236°
2026-05-08 16:42 50.13835 0.10941 9569 ft 173 kts 236°
2026-05-08 16:42 50.13149 0.09386 9571 ft 173 kts 236°
2026-05-08 16:42 50.12463 0.07838 9573 ft 174 kts 236°
2026-05-08 16:42 50.11781 0.06294 9566 ft 173 kts 236°
2026-05-08 16:43 50.11100 0.04750 9567 ft 174 kts 236°
2026-05-08 16:43 50.10413 0.03198 9570 ft 173 kts 236°
2026-05-08 16:43 50.09724 0.01649 9571 ft 173 kts 236°
2026-05-08 16:43 50.09046 0.00117 9566 ft 173 kts 236°
2026-05-08 16:44 50.08588 -0.00914 9570 ft 173 kts 236°
2026-05-08 16:44 50.07907 -0.02448 9571 ft 173 kts 236°
2026-05-08 16:44 50.06990 -0.04499 9568 ft 173 kts 236°
2026-05-08 16:44 50.06307 -0.06026 9569 ft 173 kts 236°
2026-05-08 16:45 50.05621 -0.07556 9571 ft 173 kts 236°
2026-05-08 16:45 50.05161 -0.08582 9577 ft 172 kts 236°
2026-05-08 16:45 50.04471 -0.10121 9572 ft 173 kts 236°
2026-05-08 16:45 50.03780 -0.11660 9575 ft 173 kts 236°
2026-05-08 16:46 50.03099 -0.13174 9573 ft 173 kts 236°
2026-05-08 16:46 50.02403 -0.14724 9569 ft 173 kts 236°
2026-05-08 16:46 50.01723 -0.16233 9573 ft 173 kts 236°
2026-05-08 16:46 50.01033 -0.17765 9570 ft 172 kts 236°
2026-05-08 16:47 50.00347 -0.19284 9572 ft 172 kts 236°
2026-05-08 16:47 49.99656 -0.20812 9572 ft 172 kts 236°
2026-05-08 16:47 49.98962 -0.22353 9576 ft 173 kts 236°
2026-05-08 16:47 49.98273 -0.23875 9576 ft 174 kts 236°
2026-05-08 16:48 49.97573 -0.25420 9574 ft 175 kts 236°
2026-05-08 16:48 49.96872 -0.26964 9576 ft 175 kts 236°
2026-05-08 16:48 49.96171 -0.28512 9576 ft 176 kts 236°
2026-05-08 16:48 49.95460 -0.30080 9576 ft 176 kts 236°
2026-05-08 16:49 49.94759 -0.31634 9573 ft 176 kts 236°
2026-05-08 16:49 49.94064 -0.33170 9572 ft 176 kts 236°
2026-05-08 16:49 49.93354 -0.34739 9572 ft 176 kts 236°
2026-05-08 16:49 49.92653 -0.36282 9574 ft 175 kts 236°
2026-05-08 16:50 49.91953 -0.37825 9571 ft 175 kts 236°
2026-05-08 16:50 49.91246 -0.39382 9573 ft 175 kts 236°
2026-05-08 16:50 49.90545 -0.40926 9568 ft 175 kts 236°
2026-05-08 16:50 49.89847 -0.42464 9566 ft 175 kts 236°
2026-05-08 16:51 49.89141 -0.44023 9569 ft 175 kts 236°
2026-05-08 16:51 49.88443 -0.45563 9571 ft 175 kts 236°
2026-05-08 16:51 49.87743 -0.47105 9573 ft 175 kts 236°
2026-05-08 16:51 49.87049 -0.48633 9569 ft 175 kts 236°
2026-05-08 16:52 49.86352 -0.50171 9569 ft 175 kts 236°
2026-05-08 16:52 49.85651 -0.51718 9569 ft 174 kts 236°
2026-05-08 16:52 49.84948 -0.53269 9570 ft 174 kts 236°
2026-05-08 16:52 49.84254 -0.54797 9568 ft 174 kts 236°
2026-05-08 16:53 49.82851 -0.57874 9567 ft 174 kts 236°
2026-05-08 16:53 49.82158 -0.59398 9567 ft 174 kts 236°
2026-05-08 16:53 49.81463 -0.60931 9571 ft 174 kts 236°
2026-05-08 16:54 49.80775 -0.62446 9568 ft 174 kts 236°
2026-05-08 16:54 49.80077 -0.63982 9563 ft 174 kts 236°
2026-05-08 16:54 49.79382 -0.65509 9567 ft 174 kts 236°
2026-05-08 16:54 49.78682 -0.67045 9567 ft 174 kts 236°
2026-05-08 16:55 49.77989 -0.68563 9564 ft 174 kts 236°
2026-05-08 16:55 49.77288 -0.70102 9565 ft 174 kts 236°
2026-05-08 16:55 49.76591 -0.71627 9563 ft 174 kts 236°
2026-05-08 16:55 49.75901 -0.73139 9565 ft 173 kts 236°
2026-05-08 16:56 49.75208 -0.74658 9549 ft 174 kts 236°
2026-05-08 16:56 49.74504 -0.76201 9415 ft 176 kts 236°
2026-05-08 16:56 49.73811 -0.77773 9282 ft 177 kts 239°
2026-05-08 16:56 49.73177 -0.79422 9152 ft 178 kts 240°
2026-05-08 16:57 49.72537 -0.81063 9019 ft 178 kts 239°
2026-05-08 16:57 49.71892 -0.82685 8894 ft 179 kts 239°
2026-05-08 16:57 49.71237 -0.84324 8757 ft 179 kts 238°
2026-05-08 16:57 49.70587 -0.85952 8632 ft 179 kts 238°
2026-05-08 16:58 49.69935 -0.87584 8505 ft 179 kts 238°
2026-05-08 16:58 49.69282 -0.89216 8379 ft 179 kts 238°
2026-05-08 16:58 49.68624 -0.90861 8252 ft 179 kts 238°
2026-05-08 16:58 49.67973 -0.92488 8119 ft 179 kts 238°
2026-05-08 16:59 49.67318 -0.94123 7991 ft 178 kts 238°
2026-05-08 16:59 49.66663 -0.95756 7867 ft 178 kts 238°
2026-05-08 16:59 49.66010 -0.97384 7734 ft 178 kts 238°
2026-05-08 16:59 49.65367 -0.98988 7611 ft 178 kts 238°
2026-05-08 17:00 49.64713 -1.00617 7483 ft 177 kts 238°
2026-05-08 17:00 49.64060 -1.02240 7358 ft 177 kts 238°
2026-05-08 17:00 49.63416 -1.03842 7235 ft 177 kts 238°
2026-05-08 17:00 49.62762 -1.05470 7111 ft 177 kts 238°
2026-05-08 17:01 49.62113 -1.07081 6988 ft 178 kts 237°
2026-05-08 17:01 49.61463 -1.08696 6855 ft 178 kts 237°
2026-05-08 17:01 49.60811 -1.10314 6731 ft 178 kts 237°
2026-05-08 17:01 49.60150 -1.11951 6607 ft 178 kts 237°
2026-05-08 17:02 49.59502 -1.13558 6484 ft 178 kts 237°
2026-05-08 17:02 49.58844 -1.15186 6363 ft 178 kts 237°
2026-05-08 17:02 49.58190 -1.16807 6232 ft 178 kts 236°
2026-05-08 17:02 49.57538 -1.18420 6097 ft 178 kts 236°
2026-05-08 17:03 49.56881 -1.20042 5966 ft 178 kts 236°
2026-05-08 17:03 49.56228 -1.21657 5838 ft 178 kts 236°
2026-05-08 17:03 49.55565 -1.23295 5704 ft 178 kts 236°
2026-05-08 17:03 49.54909 -1.24910 5580 ft 179 kts 235°
2026-05-08 17:04 49.54251 -1.26533 5448 ft 179 kts 236°
2026-05-08 17:04 49.53596 -1.28149 5321 ft 177 kts 235°
2026-05-08 17:04 49.52945 -1.29751 5191 ft 177 kts 235°
2026-05-08 17:04 49.52286 -1.31367 5066 ft 177 kts 234°
2026-05-08 17:05 49.51635 -1.32969 4944 ft 177 kts 234°
2026-05-08 17:05 49.50981 -1.34589 4814 ft 178 kts 234°
2026-05-08 17:05 49.50325 -1.36199 4679 ft 178 kts 234°
2026-05-08 17:05 49.49665 -1.37808 4556 ft 179 kts 234°
2026-05-08 17:06 49.49016 -1.39415 4554 ft 173 kts 235°
2026-05-08 17:06 49.48384 -1.40966 4537 ft 169 kts 233°
2026-05-08 17:06 49.47759 -1.42488 4535 ft 168 kts 234°
2026-05-08 17:06 49.47139 -1.44006 4539 ft 166 kts 234°
2026-05-08 17:07 49.46528 -1.45504 4544 ft 166 kts 233°
2026-05-08 17:07 49.45907 -1.47026 4537 ft 166 kts 233°
2026-05-08 17:07 49.45296 -1.48503 4540 ft 166 kts 233°
2026-05-08 17:07 49.44677 -1.50035 4443 ft 170 kts 235°
2026-05-08 17:08 49.44041 -1.51585 4266 ft 174 kts 233°
2026-05-08 17:08 49.43393 -1.53159 4086 ft 176 kts 234°
2026-05-08 17:08 49.42742 -1.54757 3940 ft 174 kts 234°
2026-05-08 17:08 49.42098 -1.56322 3825 ft 175 kts 234°
2026-05-08 17:09 49.41456 -1.57880 3685 ft 172 kts 234°
2026-05-08 17:09 49.40820 -1.59437 3554 ft 172 kts 234°
2026-05-08 17:09 49.40187 -1.60983 3432 ft 171 kts 233°
2026-05-08 17:09 49.39555 -1.62520 3317 ft 173 kts 235°
2026-05-08 17:10 49.38905 -1.64102 3173 ft 172 kts 234°
2026-05-08 17:10 49.38272 -1.65640 3041 ft 171 kts 233°
2026-05-08 17:10 49.37639 -1.67161 2916 ft 170 kts 233°
2026-05-08 17:10 49.37013 -1.68691 2791 ft 170 kts 234°
2026-05-08 17:11 49.36379 -1.70238 2656 ft 171 kts 234°
2026-05-08 17:11 49.35733 -1.71806 2544 ft 175 kts 233°
2026-05-08 17:11 49.35068 -1.73381 2420 ft 177 kts 234°
2026-05-08 17:11 49.34417 -1.74979 2283 ft 176 kts 234°
2026-05-08 17:12 49.33773 -1.76550 2151 ft 172 kts 234°
2026-05-08 17:12 49.33133 -1.78095 2036 ft 171 kts 234°
2026-05-08 17:12 49.32498 -1.79626 2028 ft 166 kts 234°
2026-05-08 17:12 49.31885 -1.81103 2023 ft 166 kts 234°
2026-05-08 17:13 49.31267 -1.82591 2022 ft 168 kts 234°
2026-05-08 17:13 49.30636 -1.84114 2024 ft 169 kts 234°
2026-05-08 17:13 49.30008 -1.85631 2021 ft 169 kts 234°
2026-05-08 17:13 49.29376 -1.87153 2025 ft 169 kts 234°
2026-05-08 17:14 49.28743 -1.88679 2019 ft 168 kts 234°
2026-05-08 17:14 49.28131 -1.90188 2016 ft 169 kts 239°
2026-05-08 17:14 49.27731 -1.91886 2018 ft 170 kts 250°
2026-05-08 17:14 49.27385 -1.93626 2017 ft 171 kts 250°
2026-05-08 17:15 49.27036 -1.95371 2020 ft 172 kts 250°
2026-05-08 17:15 49.26699 -1.97142 2009 ft 171 kts 255°
2026-05-08 17:15 49.26525 -1.98940 2018 ft 171 kts 261°
2026-05-08 17:15 49.26378 -2.00752 2018 ft 172 kts 262°
2026-05-08 17:16 49.26315 -2.02567 2017 ft 172 kts 265°
2026-05-08 17:16 49.26256 -2.04415 2017 ft 173 kts 264°
2026-05-08 17:16 49.26208 -2.06260 2018 ft 173 kts 265°
2026-05-08 17:16 49.26158 -2.08103 2019 ft 173 kts 265°
2026-05-08 17:17 49.26103 -2.09937 2017 ft 173 kts 265°
2026-05-08 17:17 49.26081 -2.11784 2016 ft 173 kts 270°
2026-05-08 17:17 49.26127 -2.13639 2015 ft 174 kts 270°
2026-05-08 17:17 49.26188 -2.15477 2015 ft 173 kts 271°
2026-05-08 17:18 49.26238 -2.17360 1883 ft 180 kts 269°
2026-05-08 17:18 49.26289 -2.19309 1739 ft 185 kts 270°
2026-05-08 17:18 49.26339 -2.21279 1585 ft 187 kts 270°
2026-05-08 17:18 49.26380 -2.23255 1440 ft 187 kts 270°
2026-05-08 17:19 49.26195 -2.25189 1273 ft 184 kts 240°
2026-05-08 17:19 49.25296 -2.26479 1107 ft 178 kts 199°
2026-05-08 17:19 49.24108 -2.26781 1025 ft 171 kts 180°
2026-05-08 17:19 49.22927 -2.26926 1014 ft 166 kts 181°
2026-05-08 17:20 49.21792 -2.27048 1016 ft 164 kts 180°
2026-05-08 17:20 49.20722 -2.26764 1005 ft 152 kts 143°
2026-05-08 17:20 49.20101 -2.25625 951 ft 135 kts 112°
2026-05-08 17:20 49.20143 -2.24315 846 ft 127 kts 60°
2026-05-08 17:21 49.20675 -2.23369 834 ft 106 kts 82°
2026-05-08 17:21 49.20602 -2.22230 562 ft 110 kts 89°
2026-05-08 17:21 49.20661 -2.21124 376 ft 95 kts 81°
2026-05-08 17:21 49.20749 -2.20191 287 ft 85 kts 85°
2026-05-08 17:22 49.20811 -2.19396 281 ft 58 kts 82°
2026-05-08 17:22 49.20790 -2.19021 279 ft 16 kts 109°
2026-05-08 17:22 49.20757 -2.18891 279 ft 0 kts 117°
2026-05-08 17:22 49.20730 -2.18851 279 ft 10 kts 166°
2026-05-08 17:23 49.20704 -2.18898 279 ft 11 kts 255°
2026-05-08 17:23 49.20693 -2.19000 279 ft 8 kts 264°
2026-05-08 17:23 49.20683 -2.19142 279 ft 13 kts 264°
2026-05-08 17:23 49.20698 -2.19300 279 ft 18 kts 285°
2026-05-08 17:24 49.20705 -2.19473 279 ft 12 kts 261°
2026-05-08 17:24 49.20681 -2.19623 279 ft 7 kts 232°
2026-05-08 17:24 49.20647 -2.19666 279 ft 3 kts 207°
2026-05-08 17:24 49.20621 -2.19695 279 ft 11 kts 221°
2026-05-08 17:25 49.20603 -2.19895 279 ft 18 kts 259°
2026-05-08 17:25 49.20511 -2.19927 279 ft 11 kts 174°
2026-05-08 17:25 49.20446 -2.19916 279 ft 15 kts 155°
2026-05-08 17:25 49.20439 -2.19766 279 ft 13 kts 85°
2026-05-08 17:26 49.20436 -2.19629 279 ft 9 kts 105°
2026-05-08 17:26 49.20406 -2.19448 279 ft 11 kts 106°
2026-05-08 17:26 49.20404 -2.19335 279 ft 9 kts 82°
2026-05-08 17:26 49.20413 -2.19247 279 ft 14 kts 82°
2026-05-08 17:27 49.20461 -2.19156 279 ft 10 kts 39°
2026-05-08 17:27 49.20445 -2.19102 279 ft 4 kts 169°
2026-05-08 17:27 49.20444 -2.19101 279 ft 0 kts 169°